Regional Weather Roundup
Issued by NWS

Home | Current Version | Previous Version | Graphics & Text | Print | Product List | Glossary On
Versions: 1 2 3 4 5 6 7 8 9 10 11 12 13 14 15 16 17 18 19 20 21 22 23 24 25 26 27 28 29 30 31 32 33 34 35 36 37 38 39 40 41 42 43 44 45 46 47 48 49 50
000
ASUS44 KMEG 301400
RWRTN
TENNESSEE HOURLY STATE WEATHER ROUNDUP
NATIONAL WEATHER SERVICE MEMPHIS TN
900 AM CDT SAT MAY 30 2015

TNZ002-004-019-021-049-052-054-088>092-301500-
WEST TENNESSEE

CITY           SKY/WX    TMP DP  RH WIND       PRES   REMARKS
MEMPHIS INTL   MOSUNNY   76  69  79 S14G22    30.00S
NWS MEMPHIS      N/A     74 N/A N/A MISG        N/A
JACKSON        CLOUDY    76  68  76 S14G20    30.03S
DYERSBURG      PTSUNNY   75  57  53 S9G17     30.00F
PARIS          PTSUNNY   73  66  78 S9        30.04R
LEXINGTON      MOSUNNY   73  68  83 S6        30.06R
$$

TNZ008-025-027-028-033-062-065-066-301500-
NORTH MIDDLE TENNESSEE

CITY           SKY/WX    TMP DP  RH WIND       PRES   REMARKS
NASHVILLE      PTSUNNY   79  67  66 SW7       30.10S
CLARKSVILLE    CLOUDY    74  67  78 S9        30.05S
COOKEVILLE     SUNNY     79  66  65 S9        30.13S
CROSSVILLE     SUNNY     74  61  63 S6        30.20R
$$

TNZ061-075-076-078-094-096-097-301500-
SOUTH MIDDLE TENNESSEE

CITY           SKY/WX    TMP DP  RH WIND       PRES   REMARKS
FAYETTEVILLE   SUNNY    N/A N/A N/A MISG      30.13S
TULLAHOMA      SUNNY     75  64  69 S12       30.15R
WINCHESTER     SUNNY     79  66  65 S9        30.14S
MCMINNVILLE    SUNNY     79  64  61 VRB7      30.14R
COLUMBIA       PTSUNNY   75  70  83 S8        30.08S
SHELBYVILLE    SUNNY     79  70  73 S10       30.13R
$$

TNZ017-018-042-046-047-301500-
NORTHEAST TENNESSEE

CITY           SKY/WX    TMP DP  RH WIND       PRES   REMARKS
TRI CITIES     NOT AVBL
ELIZABETHTON   SUNNY     72  63  73 E3        30.22F
$$

TNZ012-013-036-069-073-074-301500-
CENTRAL EAST TENNESSEE

CITY           SKY/WX    TMP DP  RH WIND       PRES   REMARKS
KNOXVILLE      MOSUNNY   74  63  68 NW3       30.17F
OAK RIDGE      MOSUNNY   78  63  59 S5        30.19S
GATLINBURG     SUNNY     72  64  78 CALM      30.18F
$$

TNZ083-085-099-301500-
SOUTHEAST TENNESSEE

CITY           SKY/WX    TMP DP  RH WIND       PRES   REMARKS
CHATTANOOGA    PTSUNNY   75  63  66 S6        30.17S
$$

SKY/WX REPORTED AS FAIR MEANS FEW OR NO CLOUDS BELOW
12 THOUSAND FEET.




USA.gov is the U.S. government's official web portal to all federal, state and local government web resources and services.